Regional Weather Roundup
Issued by NWS Sioux Falls, SD

Home | Current Version | Previous Version | Text Only | Print | Product List | Glossary Off
Versions: 1 2 3 4 5 6 7 8 9 10 11 12 13 14 15 16 17 18 19 20 21 22 23 24 25 26 27 28 29 30 31 32 33 34 35 36 37 38 39 40 41 42 43 44 45 46 47 48 49 50

000
ASUS43 KFSD 272210
RWRFSD

WEATHER ROUNDUP FOR SE SOUTH DAKOTA/SW MINNESOTA/NW IOWA
NATIONAL WEATHER SERVICE SIOUX FALLS SD
500 PM CDT SAT AUG 27 2016

NOTE: "FAIR" INDICATES FEW OR NO CLOUDS BELOW 12,000 FEET WITH NO
SIGNIFICANT WEATHER AND OR OBSTRUCTIONS TO VISIBILITY.


SDZ038>040-050-052>070-272300-
SOUTHEAST SOUTH DAKOTA

CITY           SKY/WX    TMP DP  RH WIND       PRES   REMARKS
BROOKINGS      MOSUNNY   74  61  63 SW10      29.97S
CHAMBERLAIN    SUNNY     86  58  37 SW8       29.91F
HURON          MOSUNNY   81  59  47 S8        29.92S
MADISON        FAIR      73  64  73 S7        29.98S
MITCHELL       SUNNY     83  60  45 S8        29.93F
SIOUX FALLS    MOSUNNY   76  65  68 S7        29.97F
WINNER         FAIR      87  59  38 S7G18     29.91F
YANKTON        SUNNY     81  61  50 S12       29.94S
$$

MNZ071-072-080-081-089-090-097-098-272300-
SOUTHWEST MINNESOTA

CITY           SKY/WX    TMP DP  RH WIND       PRES   REMARKS
FAIRMONT       PTSUNNY   73  63  70 SW8       30.00S
JACKSON          N/A     72  61  68 SW7       30.01S
LUVERNE        MOSUNNY   72  59  64 SW8       30.00S
MARSHALL       MOSUNNY   73  62  68 SW6       29.98S
MONTEVIDEO     PTSUNNY   75  63  64 S5        29.99S
REDWOOD FALLS  PTSUNNY   73  62  68 S8        29.98S
TRACY          MOSUNNY   73  63  70 SW7       29.99S
WINDOM         PTSUNNY   72  63  73 SW7       30.00S
WORTHINGTON    PTSUNNY   74  63  68 S8        30.01S
$$

IAZ001>003-012>014-020>022-031-032-NEZ013-014-SDZ071-272300-
NORTHWEST IOWA

CITY           SKY/WX    TMP DP  RH WIND       PRES   REMARKS
CHEROKEE       SUNNY     76  66  69 SW6       30.00S
DENISON        PTSUNNY   79  66  65 SW9       29.98S
ESTHERVILLE    MOSUNNY   73  65  75 SW9       30.00F
LE MARS        MOSUNNY   77  64  65 S6        29.99F
ORANGE CITY    SUNNY     75  64  69 S7        30.00S
SHELDON        PTSUNNY   73  64  73 S8        29.99F
SIOUX CITY     SUNNY     79  66  64 S7        29.98F
SPENCER        MOSUNNY   73  62  68 SW7       30.00F
STORM LAKE     MOSUNNY   77  66  69 CALM      30.01S
$$

ABBREVIATIONS USED IN REMARKS
   TC - TEMPERATURE IN CELSIUS
  WCI - WIND CHILL INDEX
   HX - HEAT INDEX
  VSB - VISIBILITY





USA.gov is the U.S. government's official web portal to all federal, state and local government web resources and services.